• In Germany
  • List of Countries
  • For 7 days
  • Water Temperature
  • Satellite Maps
  • Weather Map
  • Weather Widgets
  • user-avatar
    Login

    Hourly Weather Katerini

    Today, 25 May, Friday

    Time Temperature Precipitation Wind Pressure Humidity
    00:00 +21°C° 0.2 mm 1 mps 756 mmHg 77%
    01:00 +20°C° 0.2 mm 1 mps 756 mmHg 78%
    02:00 +19°C° 0 mm 2 mps 756 mmHg 78%
    03:00 +19°C° 0.1 mm 2 mps 756 mmHg 79%
    04:00 +19°C° 0.1 mm 2 mps 756 mmHg 80%
    05:00 +18°C° 0.1 mm 2 mps 756 mmHg 81%
    06:00 +20°C° 0 mm 2 mps 756 mmHg 76%
    07:00 +21°C° 0 mm 2 mps 756 mmHg 72%
    08:00 +24°C° 0 mm 3 mps 756 mmHg 67%
    09:00 +25°C° 0.2 mm 3 mps 756 mmHg 61%
    10:00 +26°C° 0.2 mm 3 mps 756 mmHg 56%
    11:00 +28°C° 0.2 mm 3 mps 756 mmHg 50%
    12:00 +28°C° 0.2 mm 2 mps 756 mmHg 47%
    13:00 +29°C° 0.2 mm 2 mps 756 mmHg 44%
    14:00 +30°C° 0.2 mm 2 mps 756 mmHg 42%
    15:00 +29°C° 0 mm 2 mps 756 mmHg 43%
    16:00 +29°C° 0 mm 2 mps 756 mmHg 44%
    17:00 +29°C° 0 mm 2 mps 756 mmHg 45%
    18:00 +27°C° 0.1 mm 2 mps 756 mmHg 50%
    19:00 +25°C° 0.1 mm 1 mps 757 mmHg 55%
    20:00 +24°C° 0.1 mm 1 mps 757 mmHg 59%
    21:00 +23°C° 0.3 mm 1 mps 757 mmHg 62%
    22:00 +22°C° 0.3 mm 1 mps 758 mmHg 64%
    23:00 +20°C° 0.3 mm 0 mps 758 mmHg 67%

    Tomorrow, 26 May, Saturday

    Time Temperature Precipitation Wind Pressure Humidity
    00:00 +21°C° 0.1 mm 1 mps 758 mmHg 68%
    01:00 +21°C° 0.1 mm 1 mps 758 mmHg 68%
    02:00 +21°C° 0.1 mm 1 mps 758 mmHg 69%
    03:00 +21°C° 0 mm 1 mps 758 mmHg 70%
    04:00 +19°C° 0 mm 2 mps 759 mmHg 71%
    05:00 +19°C° 0 mm 2 mps 759 mmHg 72%
    06:00 +21°C° 0 mm 2 mps 759 mmHg 68%
    07:00 +23°C° 0 mm 2 mps 759 mmHg 64%
    08:00 +25°C° 0 mm 2 mps 759 mmHg 60%
    09:00 +26°C° 0 mm 2 mps 759 mmHg 55%
    10:00 +27°C° 0 mm 2 mps 759 mmHg 51%
    11:00 +29°C° 0 mm 2 mps 759 mmHg 46%
    12:00 +29°C° 0 mm 2 mps 759 mmHg 44%
    13:00 +30°C° 0 mm 2 mps 759 mmHg 41%
    14:00 +31°C° 0 mm 2 mps 758 mmHg 39%
    15:00 +30°C° 0 mm 2 mps 758 mmHg 40%
    16:00 +30°C° 0 mm 2 mps 758 mmHg 41%
    17:00 +30°C° 0 mm 2 mps 758 mmHg 42%
    18:00 +28°C° 0.1 mm 2 mps 758 mmHg 46%
    19:00 +27°C° 0.1 mm 1 mps 758 mmHg 51%
    20:00 +25°C° 0.1 mm 1 mps 758 mmHg 56%
    21:00 +24°C° 0.3 mm 1 mps 759 mmHg 59%
    22:00 +24°C° 0.3 mm 1 mps 759 mmHg 62%
    23:00 +23°C° 0.3 mm 1 mps 760 mmHg 65%

    Day after tomorrow, 27 May, Sunday

    Time Temperature Precipitation Wind Pressure Humidity
    00:00 +23°C° 0.1 mm 1 mps 760 mmHg 68%
    01:00 +21°C° 0.1 mm 2 mps 760 mmHg 71%
    02:00 +21°C° 0.1 mm 2 mps 760 mmHg 74%
    03:00 +21°C° 0 mm 1 mps 760 mmHg 77%
    04:00 +21°C° 0 mm 1 mps 760 mmHg 80%
    05:00 +20°C° 0 mm 1 mps 760 mmHg 83%
    06:00 +22°C° 0 mm 1 mps 760 mmHg 79%
    07:00 +23°C° 0 mm 1 mps 760 mmHg 75%
    08:00 +25°C° 0 mm 1 mps 760 mmHg 71%
    09:00 +26°C° 0 mm 1 mps 760 mmHg 67%
    10:00 +27°C° 0 mm 1 mps 760 mmHg 62%
    11:00 +28°C° 0 mm 2 mps 760 mmHg 58%
    12:00 +28°C° 0.3 mm 2 mps 760 mmHg 57%
    13:00 +29°C° 0.3 mm 2 mps 759 mmHg 56%
    14:00 +29°C° 0.3 mm 3 mps 759 mmHg 54%
    15:00 +29°C° 0.6 mm 3 mps 759 mmHg 56%
    16:00 +29°C° 0.6 mm 3 mps 759 mmHg 57%
    17:00 +28°C° 0.6 mm 3 mps 759 mmHg 59%
    18:00 +27°C° 0.5 mm 3 mps 759 mmHg 65%
    19:00 +25°C° 0.5 mm 3 mps 759 mmHg 72%
    20:00 +24°C° 0.5 mm 2 mps 760 mmHg 78%
    21:00 +23°C° 0.4 mm 2 mps 760 mmHg 80%
    22:00 +23°C° 0.4 mm 2 mps 760 mmHg 82%
    23:00 +22°C° 0.4 mm 1 mps 761 mmHg 84%

    28 May, Monday

    Time Temperature Precipitation Wind Pressure Humidity
    00:00 +22°C° 0.2 mm 1 mps 760 mmHg 84%
    01:00 +21°C° 0.2 mm 1 mps 760 mmHg 85%
    02:00 +21°C° 0.2 mm 1 mps 760 mmHg 86%
    03:00 +21°C° 0.1 mm 1 mps 760 mmHg 87%
    04:00 +21°C° 0.1 mm 1 mps 760 mmHg 88%
    05:00 +18°C° 0.1 mm 0 mps 760 mmHg 89%
    06:00 +22°C° 0 mm 1 mps 760 mmHg 85%
    07:00 +23°C° 0 mm 1 mps 760 mmHg 81%
    08:00 +24°C° 0 mm 1 mps 761 mmHg 77%
    09:00 +25°C° 0.1 mm 1 mps 760 mmHg 73%
    10:00 +26°C° 0.1 mm 2 mps 760 mmHg 69%
    11:00 +27°C° 0.1 mm 2 mps 760 mmHg 66%
    12:00 +27°C° 0.3 mm 2 mps 760 mmHg 64%
    13:00 +28°C° 0.3 mm 2 mps 759 mmHg 61%
    14:00 +28°C° 0.3 mm 2 mps 759 mmHg 59%
    15:00 +28°C° 0.5 mm 3 mps 759 mmHg 60%
    16:00 +28°C° 0.5 mm 3 mps 759 mmHg 61%
    17:00 +28°C° 0.5 mm 3 mps 758 mmHg 61%
    18:00 +26°C° 0.5 mm 2 mps 759 mmHg 67%
    19:00 +25°C° 0.5 mm 2 mps 759 mmHg 73%
    20:00 +23°C° 0.5 mm 2 mps 759 mmHg 79%
    21:00 +23°C° 0.2 mm 2 mps 759 mmHg 80%
    22:00 +22°C° 0.2 mm 1 mps 760 mmHg 82%
    23:00 +22°C° 0.2 mm 1 mps 760 mmHg 83%

    29 May, Tuesday

    Time Temperature Precipitation Wind Pressure Humidity
    00:00 +21°C° 0 mm 1 mps 760 mmHg 83%
    01:00 +21°C° 0 mm 1 mps 760 mmHg 84%
    02:00 +21°C° 0 mm 1 mps 760 mmHg 85%
    03:00 +20°C° 0 mm 1 mps 760 mmHg 86%
    04:00 +20°C° 0 mm 1 mps 759 mmHg 87%
    05:00 +20°C° 0 mm 1 mps 759 mmHg 88%
    06:00 +21°C° 0 mm 1 mps 759 mmHg 83%
    07:00 +22°C° 0 mm 1 mps 759 mmHg 78%
    08:00 +24°C° 0 mm 1 mps 760 mmHg 73%
    09:00 +25°C° 0.1 mm 1 mps 759 mmHg 68%
    10:00 +26°C° 0.1 mm 1 mps 759 mmHg 63%
    11:00 +27°C° 0.1 mm 1 mps 759 mmHg 59%
    12:00 +28°C° 0.2 mm 1 mps 759 mmHg 56%
    13:00 +29°C° 0.2 mm 1 mps 758 mmHg 54%
    14:00 +29°C° 0.2 mm 2 mps 758 mmHg 52%
    15:00 +29°C° 0.3 mm 2 mps 758 mmHg 53%
    16:00 +28°C° 0.3 mm 2 mps 758 mmHg 54%
    17:00 +28°C° 0.3 mm 3 mps 757 mmHg 56%
    18:00 +26°C° 0.3 mm 2 mps 758 mmHg 61%
    19:00 +25°C° 0.3 mm 2 mps 758 mmHg 67%
    20:00 +23°C° 0.3 mm 1 mps 758 mmHg 72%
    21:00 +23°C° 0.1 mm 1 mps 758 mmHg 74%
    22:00 +22°C° 0.1 mm 1 mps 758 mmHg 75%
    23:00 +22°C° 0.1 mm 1 mps 758 mmHg 76%

    30 May, Wednesday

    Time Temperature Precipitation Wind Pressure Humidity
    00:00 +22°C° 0 mm 1 mps 758 mmHg 77%
    01:00 +21°C° 0 mm 1 mps 758 mmHg 79%
    02:00 +21°C° 0 mm 1 mps 758 mmHg 80%
    03:00 +21°C° 0 mm 1 mps 758 mmHg 81%
    04:00 +20°C° 0 mm 1 mps 758 mmHg 82%
    05:00 +20°C° 0 mm 1 mps 758 mmHg 84%
    06:00 +22°C° 0 mm 1 mps 758 mmHg 78%
    07:00 +23°C° 0 mm 1 mps 758 mmHg 73%
    08:00 +25°C° 0 mm 1 mps 758 mmHg 68%
    09:00 +26°C° 0.3 mm 1 mps 758 mmHg 64%
    10:00 +27°C° 0.3 mm 1 mps 758 mmHg 60%
    11:00 +28°C° 0.3 mm 1 mps 758 mmHg 57%
    12:00 +29°C° 0.3 mm 1 mps 757 mmHg 54%
    13:00 +29°C° 0.3 mm 2 mps 757 mmHg 52%
    14:00 +30°C° 0.3 mm 2 mps 757 mmHg 50%
    15:00 +29°C° 0.4 mm 3 mps 756 mmHg 52%
    16:00 +29°C° 0.4 mm 3 mps 756 mmHg 55%
    17:00 +28°C° 0.4 mm 3 mps 756 mmHg 57%
    18:00 +27°C° 0.5 mm 3 mps 756 mmHg 64%
    19:00 +25°C° 0.5 mm 3 mps 757 mmHg 70%
    20:00 +24°C° 0.5 mm 3 mps 757 mmHg 77%
    21:00 +23°C° 0.2 mm 2 mps 757 mmHg 79%
    22:00 +21°C° 0.2 mm 2 mps 757 mmHg 82%
    23:00 +22°C° 0.2 mm 1 mps 758 mmHg 84%
    Show more